• In Germany
  • List of Countries
  • For 7 days
  • Water Temperature
  • Satellite Maps
  • Weather Map
  • Weather Widgets
  • user-avatar
    Login

    Hourly Weather Bolshoy Dolzhik

    Today, 25 September, Tuesday

    Time Temperature Precipitation Wind Pressure Humidity
    00:00 +20°C° 0 mm 5 mps 755 mmHg 71%
    01:00 +20°C° 0 mm 5 mps 755 mmHg 74%
    02:00 +20°C° 0 mm 5 mps 754 mmHg 78%
    03:00 +19°C° 0 mm 3 mps 754 mmHg 78%
    04:00 +19°C° 0 mm 4 mps 754 mmHg 80%
    05:00 +19°C° 0 mm 4 mps 754 mmHg 81%
    06:00 +19°C° 0 mm 5 mps 754 mmHg 83%
    07:00 +19°C° 0.1 mm 5 mps 754 mmHg 81%
    08:00 +17°C° 0.1 mm 5 mps 755 mmHg 80%
    09:00 +17°C° 0 mm 5 mps 755 mmHg 78%
    10:00 +16°C° 0.2 mm 5 mps 756 mmHg 77%
    11:00 +15°C° 0.2 mm 6 mps 756 mmHg 75%
    12:00 +14°C° 0.2 mm 6 mps 757 mmHg 74%
    13:00 +14°C° 0.1 mm 5 mps 758 mmHg 72%
    14:00 +14°C° 0.1 mm 4 mps 758 mmHg 71%
    15:00 +13°C° 0 mm 3 mps 759 mmHg 73%
    16:00 +13°C° 0.2 mm 3 mps 760 mmHg 73%
    17:00 +14°C° 0.2 mm 2 mps 760 mmHg 73%
    18:00 +14°C° 0.2 mm 2 mps 760 mmHg 73%
    19:00 +14°C° 0 mm 2 mps 761 mmHg 75%
    20:00 +13°C° 0 mm 2 mps 761 mmHg 76%
    21:00 +13°C° 0 mm 2 mps 761 mmHg 78%
    22:00 +13°C° 0 mm 2 mps 761 mmHg 78%
    23:00 +12°C° 0 mm 2 mps 762 mmHg 79%

    Tomorrow, 26 September, Wednesday

    Time Temperature Precipitation Wind Pressure Humidity
    00:00 +12°C° 0 mm 2 mps 762 mmHg 79%
    01:00 +12°C° 0 mm 2 mps 762 mmHg 79%
    02:00 +10°C° 0 mm 2 mps 762 mmHg 80%
    03:00 +10°C° 0 mm 2 mps 763 mmHg 80%
    04:00 +9°C° 0 mm 2 mps 763 mmHg 81%
    05:00 +9°C° 0 mm 2 mps 763 mmHg 82%
    06:00 +9°C° 0 mm 2 mps 764 mmHg 84%
    07:00 +10°C° 0.1 mm 2 mps 764 mmHg 78%
    08:00 +11°C° 0.1 mm 3 mps 765 mmHg 73%
    09:00 +13°C° 0.1 mm 3 mps 765 mmHg 67%
    10:00 +14°C° 0 mm 4 mps 765 mmHg 62%
    11:00 +15°C° 0 mm 4 mps 765 mmHg 57%
    12:00 +15°C° 0 mm 4 mps 766 mmHg 52%
    13:00 +17°C° 0.2 mm 4 mps 766 mmHg 50%
    14:00 +17°C° 0.2 mm 4 mps 766 mmHg 48%
    15:00 +17°C° 0.2 mm 4 mps 766 mmHg 46%
    16:00 +15°C° 0.1 mm 4 mps 767 mmHg 48%
    17:00 +14°C° 0.1 mm 4 mps 767 mmHg 49%
    18:00 +14°C° 0.1 mm 3 mps 767 mmHg 51%
    19:00 +13°C° 0 mm 3 mps 768 mmHg 53%
    20:00 +12°C° 0 mm 3 mps 768 mmHg 55%
    21:00 +11°C° 0 mm 3 mps 768 mmHg 57%
    22:00 +10°C° 0 mm 3 mps 769 mmHg 57%
    23:00 +10°C° 0 mm 3 mps 769 mmHg 58%

    Day after tomorrow, 27 September, Thursday

    Time Temperature Precipitation Wind Pressure Humidity
    00:00 +9°C° 0 mm 2 mps 769 mmHg 59%
    01:00 +9°C° 0 mm 2 mps 769 mmHg 59%
    02:00 +9°C° 0 mm 2 mps 769 mmHg 60%
    03:00 +8°C° 0 mm 2 mps 769 mmHg 60%
    04:00 +8°C° 0 mm 2 mps 769 mmHg 61%
    05:00 +7°C° 0 mm 2 mps 769 mmHg 62%
    06:00 +8°C° 0 mm 1 mps 769 mmHg 63%
    07:00 +9°C° 0 mm 2 mps 769 mmHg 57%
    08:00 +10°C° 0 mm 2 mps 769 mmHg 52%
    09:00 +13°C° 0 mm 2 mps 769 mmHg 47%
    10:00 +13°C° 0 mm 3 mps 768 mmHg 42%
    11:00 +14°C° 0 mm 4 mps 768 mmHg 37%
    12:00 +15°C° 0 mm 4 mps 768 mmHg 33%
    13:00 +16°C° 0 mm 5 mps 767 mmHg 32%
    14:00 +16°C° 0 mm 5 mps 766 mmHg 31%
    15:00 +16°C° 0 mm 6 mps 766 mmHg 30%
    16:00 +16°C° 0 mm 5 mps 766 mmHg 33%
    17:00 +15°C° 0 mm 5 mps 765 mmHg 35%
    18:00 +14°C° 0 mm 4 mps 765 mmHg 38%
    19:00 +13°C° 0 mm 4 mps 765 mmHg 40%
    20:00 +13°C° 0 mm 4 mps 766 mmHg 42%
    21:00 +12°C° 0 mm 4 mps 766 mmHg 45%
    22:00 +12°C° 0 mm 4 mps 766 mmHg 44%
    23:00 +12°C° 0 mm 4 mps 766 mmHg 44%

    28 September, Friday

    Time Temperature Precipitation Wind Pressure Humidity
    00:00 +12°C° 0 mm 4 mps 765 mmHg 43%
    01:00 +11°C° 0 mm 3 mps 765 mmHg 44%
    02:00 +11°C° 0 mm 3 mps 765 mmHg 44%
    03:00 +11°C° 0 mm 3 mps 765 mmHg 45%
    04:00 +10°C° 0 mm 3 mps 765 mmHg 47%
    05:00 +10°C° 0 mm 3 mps 765 mmHg 50%
    06:00 +10°C° 0 mm 2 mps 765 mmHg 52%
    07:00 +11°C° 0 mm 3 mps 765 mmHg 50%
    08:00 +13°C° 0 mm 3 mps 765 mmHg 47%
    09:00 +14°C° 0 mm 4 mps 765 mmHg 45%
    10:00 +17°C° 0 mm 4 mps 764 mmHg 43%
    11:00 +18°C° 0 mm 4 mps 764 mmHg 40%
    12:00 +20°C° 0 mm 5 mps 764 mmHg 38%
    13:00 +20°C° 0 mm 5 mps 763 mmHg 38%
    14:00 +21°C° 0 mm 5 mps 763 mmHg 38%
    15:00 +21°C° 0 mm 5 mps 762 mmHg 38%
    16:00 +20°C° 0 mm 4 mps 762 mmHg 40%
    17:00 +19°C° 0 mm 4 mps 762 mmHg 43%
    18:00 +18°C° 0 mm 3 mps 761 mmHg 46%
    19:00 +17°C° 0 mm 3 mps 762 mmHg 49%
    20:00 +16°C° 0 mm 3 mps 762 mmHg 52%
    21:00 +15°C° 0 mm 2 mps 762 mmHg 55%
    22:00 +15°C° 0 mm 2 mps 762 mmHg 58%
    23:00 +15°C° 0 mm 2 mps 762 mmHg 61%

    29 September, Saturday

    Time Temperature Precipitation Wind Pressure Humidity
    00:00 +14°C° 0 mm 2 mps 761 mmHg 64%
    01:00 +14°C° 0 mm 1 mps 761 mmHg 66%
    02:00 +14°C° 0 mm 1 mps 761 mmHg 68%
    03:00 +13°C° 0 mm 1 mps 761 mmHg 70%
    04:00 +13°C° 0 mm 1 mps 761 mmHg 71%
    05:00 +13°C° 0 mm 1 mps 761 mmHg 72%
    06:00 +13°C° 0 mm 1 mps 761 mmHg 73%
    07:00 +14°C° 0 mm 1 mps 761 mmHg 66%
    08:00 +16°C° 0 mm 1 mps 761 mmHg 60%
    09:00 +19°C° 0 mm 1 mps 761 mmHg 53%
    10:00 +20°C° 0 mm 1 mps 761 mmHg 48%
    11:00 +22°C° 0 mm 1 mps 761 mmHg 42%
    12:00 +23°C° 0 mm 1 mps 761 mmHg 36%
    13:00 +24°C° 0 mm 1 mps 760 mmHg 35%
    14:00 +25°C° 0 mm 1 mps 760 mmHg 34%
    15:00 +23°C° 0 mm 0 mps 760 mmHg 33%
    16:00 +24°C° 0 mm 1 mps 760 mmHg 35%
    17:00 +23°C° 0 mm 1 mps 760 mmHg 37%
    18:00 +23°C° 0 mm 1 mps 760 mmHg 39%
    19:00 +22°C° 0 mm 1 mps 760 mmHg 41%
    20:00 +20°C° 0 mm 2 mps 760 mmHg 42%
    21:00 +20°C° 0 mm 2 mps 760 mmHg 44%
    22:00 +19°C° 0 mm 3 mps 760 mmHg 46%
    23:00 +19°C° 0 mm 3 mps 760 mmHg 47%

    30 September, Sunday

    Time Temperature Precipitation Wind Pressure Humidity
    00:00 +19°C° 0 mm 3 mps 761 mmHg 49%
    01:00 +18°C° 0 mm 3 mps 761 mmHg 51%
    02:00 +18°C° 0 mm 3 mps 761 mmHg 54%
    03:00 +17°C° 0 mm 3 mps 761 mmHg 56%
    04:00 +17°C° 0 mm 4 mps 761 mmHg 59%
    05:00 +15°C° 0 mm 4 mps 761 mmHg 63%
    06:00 +15°C° 0 mm 4 mps 762 mmHg 66%
    07:00 +16°C° 0 mm 5 mps 762 mmHg 64%
    08:00 +17°C° 0 mm 5 mps 762 mmHg 62%
    09:00 +19°C° 0 mm 6 mps 762 mmHg 60%
    10:00 +21°C° 0 mm 6 mps 762 mmHg 55%
    11:00 +22°C° 0 mm 6 mps 762 mmHg 51%
    12:00 +23°C° 0 mm 6 mps 762 mmHg 46%
    13:00 +24°C° 0 mm 6 mps 762 mmHg 45%
    14:00 +24°C° 0 mm 6 mps 762 mmHg 45%
    15:00 +24°C° 0 mm 6 mps 762 mmHg 44%
    16:00 +23°C° 0 mm 6 mps 762 mmHg 47%
    17:00 +22°C° 0 mm 5 mps 762 mmHg 49%
    18:00 +21°C° 0 mm 5 mps 762 mmHg 52%
    19:00 +21°C° 0 mm 6 mps 762 mmHg 55%
    20:00 +20°C° 0 mm 6 mps 763 mmHg 57%
    21:00 +19°C° 0 mm 6 mps 763 mmHg 60%
    22:00 +17°C° 0 mm 6 mps 763 mmHg 61%
    23:00 +17°C° 0 mm 6 mps 763 mmHg 61%
    Show more